FW7772 Weather Reports


Display with metric or nautical units.
time (UTC)temp
F
wind
direction
speed
MPH
gust
MPH
rain 1hr
in
rain 24hr
in
rain mn
in
humidity
%
barometer
mb
20260903183905 51 320 2.0 3.0 0.00 0.00 0.00 81 1003.5
20260903183337 51 250 2.0 3.0 0.00 0.00 0.00 81 1003.4
20260903181902 52 250 1.0 2.0 0.00 0.00 0.00 80 1003.4
20260903180901 53 250 1.0 3.0 0.00 0.00 0.00 80 1003.6
20260903175902 53 335 0.0 0.0 0.00 0.00 0.00 80 1003.6
20260903174902 53 335 0.0 2.0 0.00 0.00 0.00 80 1003.5
20260903173902 53 335 1.0 3.0 0.00 0.00 0.00 80 1003.6
20260903173338 53 335 2.0 3.0 0.00 0.00 0.00 80 1003.5
20260903171902 54 341 2.0 3.0 0.00 0.00 0.00 78 1003.5
20260903171037 55 289 2.0 3.0 0.00 0.00 0.00 75 1003.5
20260903164902 57 279 3.0 6.0 0.00 0.00 0.00 69 1003.5
20260903163902 58 334 4.0 7.0 0.00 0.00 0.00 68 1003.6
20260903162901 58 281 5.0 8.0 0.00 0.00 0.00 63 1003.5
20260903162337 59 300 5.0 8.0 0.00 0.00 0.00 64 1003.6
20260903160901 59 289 4.0 8.0 0.00 0.00 0.00 66 1003.6
20260903155902 58 279 3.0 4.0 0.00 0.00 0.00 68 1003.6
20260903154901 59 238 3.0 5.0 0.00 0.00 0.00 64 1003.7
20260903153902 60 262 5.0 9.0 0.00 0.00 0.00 59 1003.6
20260903152901 61 291 4.0 9.0 0.00 0.00 0.00 62 1003.7
20260903151901 62 249 5.0 10.0 0.00 0.00 0.00 60 1003.7
20260903150857 62 251 3.0 7.0 0.00 0.00 0.00 62 1003.7
20260903145858 60 261 2.0 4.0 0.00 0.00 0.00 70 1003.7
20260903145336 58 235 1.0 4.0 0.00 0.00 0.00 74 1003.8
20260903143858 57 231 1.0 3.0 0.00 0.00 0.00 77 1003.8
20260903142858 57 324 0.0 1.0 0.00 0.00 0.00 75 1003.8
20260903141858 57 324 1.0 3.0 0.00 0.00 0.00 73 1003.8
20260903140859 58 310 3.0 6.0 0.00 0.00 0.00 67 1003.9
20260903135857 59 300 4.0 7.0 0.00 0.00 0.00 68 1003.9
20260903134901 58 331 2.0 5.0 0.00 0.00 0.00 72 1003.8
20260903134331 58 320 3.0 6.0 0.00 0.00 0.00 76 1003.9
20260903132851 59 310 3.0 5.0 0.00 0.00 0.00 64 1003.9
20260903131852 61 333 7.0 11.0 0.00 0.00 0.00 59 1003.7
20260903130851 63 300 5.0 17.0 0.00 0.00 0.00 60 1003.8
20260903130329 61 280 5.0 9.0 0.00 0.00 0.00 61 1003.8
20260903124851 62 344 5.0 10.0 0.00 0.00 0.00 53 1003.7
20260903123852 63 355 6.0 11.0 0.00 0.00 0.00 50 1003.8
20260903122851 62 246 8.0 12.0 0.00 0.00 0.00 51 1003.8
20260903121852 62 268 7.0 12.0 0.00 0.00 0.00 52 1003.8
20260903120853 62 305 7.0 13.0 0.00 0.00 0.00 51 1003.8
20260903115852 64 310 7.0 15.0 0.00 0.00 0.00 49 1003.8
20260903114850 65 326 5.0 11.0 0.00 0.00 0.00 49 1003.8
20260903113849 65 300 6.0 10.0 0.00 0.00 0.00 48 1003.8
20260903112847 62 241 6.0 12.0 0.00 0.00 0.00 50 1003.8
20260903111847 64 332 7.0 12.0 0.00 0.00 0.00 47 1003.8
20260903111335 63 296 8.0 14.0 0.00 0.00 0.00 49 1003.9
20260903105848 63 310 6.0 12.0 0.00 0.00 0.00 50 1003.9
20260903104848 62 268 10.0 17.0 0.00 0.00 0.00 50 1003.9
20260903103848 63 310 8.0 15.0 0.00 0.00 0.00 52 1003.9
20260903102847 62 320 9.0 15.0 0.00 0.00 0.00 50 1003.9
20260903102324 63 317 7.0 14.0 0.00 0.00 0.00 53 1004.0
20260903100841 63 243 7.0 14.0 0.00 0.00 0.00 50 1004.0
20260903100800 61 280 10.0 17.0 0.00 0.00 0.00 56 1004.0
20260903095315 63 320 8.0 18.0 0.00 0.00 0.00 54 1004.1
20260903093841 62 285 9.0 15.0 0.00 0.00 0.00 55 1004.0
20260903093315 61 335 9.0 14.0 0.00 0.00 0.00 56 1004.1
20260903092324 60 305 7.0 14.0 0.00 0.00 0.00 54 1004.2
20260903090845 60 289 8.0 14.0 0.00 0.00 0.00 58 1004.1
20260903085842 60 315 8.0 14.0 0.00 0.00 0.00 57 1004.2
20260903084840 59 310 10.0 15.0 0.00 0.00 0.00 59 1004.1
20260903083835 58 305 11.0 16.0 0.00 0.00 0.00 58 1004.2
20260903082836 59 300 8.0 13.0 0.00 0.00 0.00 61 1004.1
20260903081835 58 300 7.0 11.0 0.00 0.00 0.00 60 1004.0
20260903081315 57 310 5.0 11.0 0.00 0.00 0.00 62 1004.1
20260903080315 56 310 3.0 9.0 0.00 0.00 0.00 64 1003.9
20260903074835 56 217 6.0 11.0 0.00 0.00 0.00 68 1004.1
20260903073833 55 288 4.0 10.0 0.00 0.00 0.00 70 1004.1
20260903072833 54 345 1.0 4.0 0.00 0.00 0.00 78 1004.1
20260903072314 53 338 3.0 4.0 0.00 0.00 0.00 76 1004.0
20260903070831 51 310 3.0 7.0 0.00 0.00 0.00 81 1004.1
20260903070307 49 310 3.0 5.0 0.00 0.00 0.00 91 1004.0
20260903064831 45 328 3.0 7.0 0.00 0.00 0.00 94 1004.0
20260903064313 44 327 2.0 4.0 0.00 0.00 0.00 94 1004.1
20260903062830 43 300 3.0 4.0 0.00 0.00 0.00 94 1004.1
20260903062308 42 268 2.0 4.0 0.00 0.00 0.00 94 1004.0
20260903060831 41 276 1.0 3.0 0.00 0.00 0.00 93 1004.2
20260903055831 40 300 1.0 4.0 0.00 0.00 0.00 93 1004.1
20260903054830 39 285 3.0 5.0 0.00 0.00 0.00 93 1004.3
20260903053831 38 283 2.0 4.0 0.00 0.00 0.00 92 1004.2
20260903052831 38 284 3.0 5.0 0.00 0.00 0.00 92 1004.1
20260903051831 38 293 2.0 3.0 0.00 0.00 0.00 91 1004.1
20260903050830 38 300 0.0 3.0 0.00 0.00 0.00 91 1004.1
20260903050311 38 315 0.0 0.0 0.00 0.00 0.00 91 1004.1
20260903045752 38 315 0.0 0.0 0.00 0.00 0.00 91 1004.2
20260903043830 38 315 0.0 0.0 0.00 0.00 0.00 91 1004.1
20260903042829 38 315 0.0 0.0 0.00 0.00 0.00 91 1003.9
20260903041829 39 315 0.0 0.0 0.00 0.00 0.00 91 1004.0
20260903040829 39 310 0.0 0.0 0.00 0.00 0.00 91 1004.1
20260903035831 39 327 1.0 4.0 0.00 0.00 0.00 91 1004.1
20260903034830 40 327 2.0 4.0 0.00 0.00 0.00 92 1004.1
20260903034314 40 324 2.0 3.0 0.00 0.00 0.00 92 1004.0
20260903032829 40 324 2.0 4.0 0.00 0.00 0.00 92 1003.9
20260903031829 40 310 2.0 3.0 0.00 0.00 0.00 92 1003.9
20260903030829 41 287 2.0 3.0 0.00 0.00 0.00 92 1004.0
20260903025829 41 287 2.0 3.0 0.00 0.00 0.00 92 1003.9
20260903024829 41 278 2.0 3.0 0.00 0.00 0.00 92 1004.0
20260903023829 41 322 2.0 3.0 0.00 0.00 0.00 92 1004.1
20260903023314 41 314 2.0 4.0 0.00 0.00 0.00 92 1004.1
20260903022306 41 316 3.0 4.0 0.00 0.00 0.00 92 1004.1
20260903020829 40 305 4.0 5.0 0.00 0.00 0.00 92 1004.0
20260903020315 40 300 2.0 4.0 0.00 0.00 0.00 92 1004.0
20260903014830 40 318 3.0 4.0 0.00 0.00 0.00 92 1004.1
20260903013829 39 322 3.0 4.0 0.00 0.00 0.00 92 1004.1
20260903012830 39 310 2.0 3.0 0.00 0.00 0.00 91 1004.2
20260903011829 39 310 2.0 4.0 0.00 0.00 0.00 91 1004.4
20260903010829 39 305 3.0 7.0 0.00 0.00 0.00 91 1004.2
20260903010749 39 320 3.0 7.0 0.00 0.00 0.00 90 1004.2
20260903004830 39 314 2.0 4.0 0.00 0.00 0.00 90 1004.3
20260903003829 39 314 2.0 3.0 0.00 0.00 0.00 89 1004.2
20260903002829 39 270 3.0 4.0 0.00 0.00 0.00 89 1004.3
20260903001829 39 324 1.0 4.0 0.00 0.00 0.00 89 1004.4
20260903000830 40 248 0.0 3.0 0.00 0.00 0.00 89 1004.4
20260902235829 40 248 2.0 3.0 0.00 0.00 0.00 89 1004.4
20260902234833 40 295 0.0 2.0 0.00 0.00 0.00 89 1004.3
20260902233829 40 295 1.0 2.0 0.00 0.00 0.00 89 1004.4
20260902232828 40 295 2.0 3.0 0.00 0.00 0.00 88 1004.3
20260902231828 40 295 2.0 3.0 0.00 0.00 0.00 88 1004.5
20260902231307 41 265 1.0 3.0 0.00 0.00 0.00 87 1004.5
20260902230310 41 233 1.0 3.0 0.00 0.00 0.00 87 1004.4
20260902224828 41 233 1.0 3.0 0.00 0.00 0.00 87 1004.4
20260902224313 42 310 1.0 2.0 0.00 0.00 0.00 87 1004.4
20260902222829 42 310 1.0 3.0 0.00 0.00 0.00 87 1004.4
20260902221829 42 310 1.0 3.0 0.00 0.00 0.00 87 1004.4
20260902220829 43 310 1.0 3.0 0.00 0.00 0.00 87 1004.4
20260902215830 43 197 1.0 3.0 0.00 0.00 0.00 87 1004.4
20260902215318 43 197 1.0 2.0 0.00 0.00 0.00 86 1004.3
20260902213829 44 197 2.0 4.0 0.00 0.00 0.00 86 1004.3
20260902213310 44 179 1.0 3.0 0.00 0.00 0.00 85 1004.4
20260902211828 44 68 1.0 3.0 0.00 0.00 0.00 84 1004.6
20260902210829 45 168 1.0 3.0 0.00 0.00 0.00 83 1004.3
20260902210008 45 230 0.0 0.0 0.00 0.00 0.00 83 1004.4
20260902203829 46 231 2.0 3.0 0.00 0.00 0.00 82 1004.5
20260902202829 47 239 0.0 3.0 0.00 0.00 0.00 82 1004.4
20260902201829 47 261 0.0 0.0 0.00 0.00 0.00 82 1004.6
20260902200829 48 261 0.0 0.0 0.00 0.00 0.00 81 1004.6
20260902200308 49 261 0.0 0.0 0.00 0.00 0.00 80 1004.5
20260902194830 49 261 0.0 0.0 0.00 0.00 0.00 80 1004.6
20260902193828 50 261 0.0 0.0 0.00 0.00 0.00 79 1004.5
20260902193306 50 261 0.0 0.0 0.00 0.00 0.00 78 1004.5
20260902191828 51 261 1.0 3.0 0.00 0.00 0.00 76 1004.5
20260902190829 52 261 1.0 3.0 0.00 0.00 0.00 76 1004.4
20260902185830 53 261 2.0 3.0 0.00 0.00 0.00 76 1004.4
20260902184829 54 261 2.0 3.0 0.00 0.00 0.00 74 1004.5